Regional Weather Roundup
Issued by NWS

Home | Current Version | Previous Version | Graphics & Text | Print | Product List | Glossary On
Versions: 1 2 3 4 5 6 7 8 9 10 11 12 13 14 15 16 17 18 19 20 21 22 23 24 25 26 27 28 29 30 31 32 33 34 35 36 37 38 39 40 41 42 43 44 45 46 47 48 49 50
877
ASUS43 KMPX 302010
RWRMN
WEATHER ROUNDUP FOR MINNESOTA
NATIONAL WEATHER SERVICE TWIN CITIES/CHANHASSEN MN
300 PM CDT SAT APR 30 2016


NOTE: "FAIR" INDICATES FEW OR NO CLOUDS BELOW 12,000 FEET WITH NO
SIGNIFICANT WEATHER AND/OR OBSTRUCTIONS TO VISIBILITY. N/A MEANS
CURRENT SKY AND/OR WEATHER CONDITIONS ARE NOT AVAILABLE.

MNZ060>063-068>070-302100-
   Twin Cities Metro

CITY           SKY/WX    TMP DP  RH WIND       PRES   REMARKS
TWIN CITIES    CLOUDY    57  33  40 E20G28    30.03F
ST PAUL        CLOUDY    57  33  40 E20G29    30.05F
CRYSTAL        CLOUDY    59  33  37 E16G26    30.04F
BLAINE         PTSUNNY   59  36  41 E18G24    30.05F
EDEN PRAIRIE   CLOUDY    57  33  40 NE14G29   30.02S
SOUTH ST PAUL  CLOUDY    57  32  38 E16G26    30.03S
LAKE ELMO      FAIR      57  36  44 E13G23    30.05F
$$
MNZ001>005-007-008-013>017-022>024-027-028-302100-
   Northwest Minnesota

CITY           SKY/WX    TMP DP  RH WIND       PRES   REMARKS
BEMIDJI        SUNNY     58  28  31 E15G25    30.16F
HALLOCK        SUNNY     61  25  25 E15G23    30.25S
ROSEAU         SUNNY     55  34  44 E22G28    30.26F
WARROAD        SUNNY     54  30  40 NE13      30.29S
THIEF RVR FALL SUNNY     57  25  28 NE20G30   30.22F
CROOKSTON      SUNNY     61  27  27 E18G26    30.20F
FOSSTON        SUNNY     57  25  28 NE18G28   30.18F
DETROIT LAKES  CLOUDY    57  28  33 E15G24    30.14F
MOORHEAD       CLOUDY    61  28  29 NE18G25   30.14F
PARK RAPIDS    CLOUDY    58  26  29 NE16G29   30.13F
MAHNOMEN       FAIR      58  24  27 E17G25    30.14F
$$
MNZ006-009>011-018-025>026-302100-
   North Central Minnesota

CITY           SKY/WX    TMP DP  RH WIND       PRES   REMARKS
BAUDETTE       SUNNY     58  26  29 NE9G20    30.25F
FLAG ISLAND    SUNNY     52  25  35 NE15G23   30.28S
INTL FALLS     SUNNY     56  28  34 N14G21    30.24F
WASKISH        SUNNY     57  30  35 N13G18    30.21F
BIG FORK       SUNNY     57  27  30 E15       30.19F
LONGVILLE      MOSUNNY   57  28  33 NE10G23   30.14F
GRAND RAPIDS   MOSUNNY   55  27  33 N10G20    30.18F
CRANE LAKE     SUNNY     54  27  35 NE6       30.25F
ORR            SUNNY     55  21  26 NE3       30.20F
COOK           MOSUNNY   54  28  37 NE8       30.21F
WALKER         MOCLDY    56  31  38 E9G18     30.15F
$$
MNZ012-019>021-037-302100-
   Northeast Minnesota

CITY           SKY/WX    TMP DP  RH WIND       PRES   REMARKS
DULUTH         MOSUNNY   47  27  45 E22G35    30.22S
ELY            MOSUNNY   54  25  32 E12G20    30.22S
HIBBING        PTSUNNY   54  26  34 E16       30.18F
EVELETH        MOSUNNY   55  27  33 NE10G18   30.19F
DULUTH HARBOR  CLOUDY    43  37  81 NE23      30.24F
TWO HARBORS    SUNNY     50  36  57 E22G29    30.23S
SILVER BAY     SUNNY     46  30  53 NE13G22   30.25R
GRAND MARAIS     N/A     42  32  67 E6        30.28R
G MARAIS ARPRT PTSUNNY   46  23  39 N8G20     30.25S
$$
MNZ029>031-032-039>041-046>048-054>057-064-302100-
   West Central Minnesota

CITY           SKY/WX    TMP DP  RH WIND       PRES   REMARKS
FERGUS FALLS   MOSUNNY   59  30  33 E17G24    30.09F
WHEATON        PTSUNNY   61  37  41 NE17G29   30.10F
MORRIS         CLOUDY    57  37  47 E18G24    30.07S
ALEXANDRIA     PTSUNNY   57  33  40 E18G28    30.10S
ELBOW LAKE     FAIR      56  32  41 NE17G23   30.11S
WADENA         MOSUNNY   57  30  35 E18G25    30.10F
GLENWOOD       CLOUDY    55  36  47 NE24      30.09S
APPLETON       CLOUDY    57  34  41 E20G26    30.05S
BENSON         CLOUDY    57  28  33 E18G26    30.06S
ORTONVILLE     CLOUDY    55  37  50 NE17G24   30.06S
MADISON        CLOUDY    55  36  47 E22G28    30.05R
WILLMAR        FAIR      55  36  47 E17       30.06S
$$
MNZ033>034-036-042>043-049>051-058-059-302100-
   Central Minnesota

CITY           SKY/WX    TMP DP  RH WIND       PRES   REMARKS
ST CLOUD       PTSUNNY   57  33  40 NE16G26   30.07F
SAUK CENTRE    FAIR      55  35  48 NE16G23   30.09S
PAYNESVILLE    CLOUDY    56  32  40 E14G25    30.07S
AITKIN         CLOUDY    57  27  30 E14G23    30.14S
PINE RIVER     CLOUDY    57  34  41 NE13G25   30.16S
BRAINERD       CLOUDY    56  31  38 E10G18    30.14S
STAPLES        CLOUDY    57  28  33 E14G24    30.11F
LONG PRAIRIE   FAIR      54  34  47 NE15G26   30.10S
LITTLE FALLS   MOSUNNY   55  32  41 NE12G22   30.11S
LITCHFIELD     CLOUDY    57  28  33 E20       30.05S
BUFFALO        CLOUDY    58  31  35 E20G25    30.05F
MAPLE LAKE     CLOUDY    58  35  40 E16G22    30.06S
HUTCHINSON     SUNNY     56  37  47 NE20G25   30.05R
$$
MNZ037-044-045-052-053-302100-
   East Central Minnesota

CITY           SKY/WX    TMP DP  RH WIND       PRES   REMARKS
PRINCETON      CLOUDY    59  34  38 NE13G24   30.08S
MORA           MOSUNNY   54  34  47 NE12G20   30.13S
CAMBRIDGE      CLOUDY    61  39  44 N15G26    30.06F
RUSH CITY      MOSUNNY   58  34  40 NE13G23   30.10S
MOOSE LAKE     MOSUNNY   54  30  40 NE18G26   30.16F
HINCKLEY       FAIR      55  36  47 NE15G22   30.13S
CLOQUET        CLOUDY    48  25  40 E21G32    30.20F
MCGREGOR       MOSUNNY   54  32  43 E15G23    30.17F
$$
MNZ071>073-080-081-089-090-097-098-302100-
   Southwest Minnesota

CITY           SKY/WX    TMP DP  RH WIND       PRES   REMARKS
MONTEVIDEO     CLOUDY    55  36  47 E21G32    30.06S
GRANITE FALLS  CLOUDY    56  37  48 NE20G28   30.04S
CANBY          CLOUDY    55  39  54 NE25      30.04S
MARSHALL       CLOUDY    51  38  60 E17       30.01S
REDWOOD FALLS  CLOUDY    54  34  46 E15G25    30.02S
OLIVIA         CLOUDY    54  34  47 E15G24    30.03S
PIPESTONE      CLOUDY    45  39  81 E17G31    29.94F
WINDOM         RAIN      45  39  81 NE20G26   29.99F
WORTHINGTON    LGT RAIN  42  39  89 NE36G45   29.88F
JACKSON        LGT SNOW  43  39  87 NE23G30   29.97F
TRACY          CLOUDY    50  38  63 E22G28    30.01S
SLAYTON        LGT RAIN  44  40  87 E22G29    29.98F
$$
MNZ065>067-074>077-082>085-091>093-302100-
   South Central Minnesota

CITY           SKY/WX    TMP DP  RH WIND       PRES   REMARKS
MANKATO        CLOUDY    52  34  50 E13G20    30.03R
NEW ULM        CLOUDY    52  34  50 E10G17    30.03R
ST JAMES       LGT RAIN  43  36  75 NE20G26   30.03R
FAIRMONT       CLOUDY    43  34  70 NE18G26   29.99R
GLENCOE        CLOUDY    56  39  51 E16       30.03R
FARIBAULT      CLOUDY    54  36  50 NE15G24   30.01S
OWATONNA       LGT RAIN  50  37  62 E12       30.01R
WASECA         LGT RAIN  50  37  62 E17G23    30.04R
ALBERT LEA     CLOUDY    43  43 100 E16G23    30.00R
$$
MNZ078>079-086>088-094>096-302100-
   Southeast Minnesota

CITY           SKY/WX    TMP DP  RH WIND       PRES   REMARKS
ROCHESTER      RAIN      45  40  82 E16       30.00S
RED WING       CLOUDY    57  32  38 E14G26    30.01F
STANTON        CLOUDY    55  36  49 E17G28    30.00S
DODGE CENTER   LGT RAIN  45  39  81 E14G26    30.00R
WINONA         CLOUDY    54  36  50 E9G17     30.01F
AUSTIN         LGT RAIN  43  39  87 NE14G20   29.99R
PRESTON        LGT RAIN  43  39  85 NE13G22   29.98F
$$
ABBREVIATIONS USED IN REMARKS
   TC - TEMPERATURES IN CELSIUS
  WCI - WIND CHILL INDEX
   HX - HEAT INDEX
  VSB - VISIBILITY
$$




USA.gov is the U.S. government's official web portal to all federal, state and local government web resources and services.